Change the Weather History Date:

Sunday, August 4, 2013

  Actual Average Record
Temperature  
Mean Temperature 76 °F -  
Max Temperature 79 °F 90 °F 113 °F (2012)
Min Temperature 73 °F 66 °F 66 °F (2014)
Cooling Degree Days 11    
Growing Degree Days 26 (Base 50)    
Moisture  
Dew Point 73 °F    
Average Humidity 92    
Maximum Humidity 94    
Minimum Humidity 87    
Precipitation  
Precipitation 0.71 in - - ()
Sea Level Pressure  
Sea Level Pressure 30.04 in    
Wind  
Wind Speed 7 mph (ENE)    
Max Wind Speed 20 mph    
Max Gust Speed 24 mph    
Visibility 9 miles    
Events Rain , Thunderstorm    
Averages and records for this station are not official NWS values.
T = Trace of Precipitation, MM = Missing Value Source: NWS Daily Summary

Daily Weather History Graph

Daily Weather History Graph

Search for Another Location

Airport or City:

Trip Planner

Search our weather history database for the weather conditions in past years. The results will help you decide how hot, cold, wet, or windy it might be!

Date:

Astronomy

Aug. 04, 2013 Rise Set
Actual Time 6:30 AM CDT 8:26 PM CDT
Civil Twilight 6:01 AM CDT 8:54 PM CDT
Nautical Twilight 5:26 AM CDT 9:29 PM CDT
Astronomical Twilight 4:49 AM CDT 10:06 PM CDT
Moon 4:32 AM CDT (8/4) 6:50 PM CDT (8/4)
Length of Visible Light 14h 53m
Length of Day
13h 56m
Waning Crescent, 4% of the Moon is Illuminated
Aug 4
Waning Crescent
Aug 6
New
Aug 14
First Quarter
Aug 20
Full
Aug 28
Last Quarter

Hourly Weather History & Observations

Time (CDT) Temp. Dew Point Humidity Pressure Visibility Wind Dir Wind Speed Gust Speed Precip Events Conditions
12:52 AM 79.0 °F 75.0 °F 88% 30.04 in 10.0 mi East 5.8 mph - N/A   Mostly Cloudy
1:52 AM 79.0 °F 75.0 °F 88% 30.01 in 10.0 mi East 4.6 mph - N/A   Mostly Cloudy
2:52 AM 77.0 °F 75.0 °F 94% 30.01 in 10.0 mi ENE 3.5 mph - N/A   Clear
3:52 AM 77.0 °F 73.9 °F 90% 30.03 in 10.0 mi East 3.5 mph - N/A   Partly Cloudy
4:33 AM 77.0 °F 73.4 °F 89% 30.05 in 10.0 mi Calm Calm - 0.00 in Rain , Thunderstorm Light Rain
4:52 AM 77.0 °F 75.0 °F 94% 30.02 in 2.5 mi East 4.6 mph - 0.16 in Rain , Thunderstorm Heavy Thunderstorms and Rain
5:03 AM 77.0 °F 75.2 °F 94% 30.04 in 5.0 mi NNW 6.9 mph - 0.06 in Rain , Thunderstorm Light Thunderstorms and Rain
5:22 AM 75.2 °F 73.4 °F 94% 30.07 in 10.0 mi NNW 16.1 mph - 0.08 in Rain , Thunderstorm Light Thunderstorms and Rain
5:37 AM 73.4 °F 71.6 °F 94% 30.08 in 8.0 mi WNW 10.4 mph 24.2 mph 0.11 in Rain , Thunderstorm Light Thunderstorms and Rain
5:52 AM 73.0 °F 71.1 °F 93% 30.06 in 2.0 mi ENE 3.5 mph - 0.33 in Rain , Thunderstorm Heavy Thunderstorms and Rain
5:56 AM 73.4 °F 71.6 °F 94% 30.07 in 1.5 mi ENE 3.5 mph - 0.04 in Rain , Thunderstorm Heavy Thunderstorms and Rain
9:09 AM 73.4 °F 71.6 °F 94% 30.11 in 1.8 mi East 9.2 mph - 0.09 in Rain Heavy Rain
9:52 AM 75.0 °F 73.0 °F 94% 30.10 in 8.0 mi East 5.8 mph - 0.13 in Rain Light Rain
10:52 AM 75.9 °F 73.0 °F 91% 30.10 in 10.0 mi East 4.6 mph - 0.02 in Rain Light Rain
11:01 AM 75.2 °F 73.4 °F 94% 30.12 in 9.0 mi ENE 5.8 mph - 0.00 in Rain Light Rain
11:31 AM 75.2 °F 73.4 °F 94% 30.10 in 6.0 mi ENE 6.9 mph - 0.01 in Rain Light Rain
11:52 AM 75.0 °F 73.0 °F 94% 30.07 in 9.0 mi ENE 9.2 mph - 0.02 in Rain Light Rain
12:06 PM 75.2 °F 73.4 °F 94% 30.10 in 9.0 mi ENE 9.2 mph - 0.00 in Rain Light Rain
12:16 PM 75.2 °F 73.4 °F 94% 30.09 in 10.0 mi East 6.9 mph - 0.01 in Rain Light Rain
12:23 PM 75.2 °F 73.4 °F 94% 30.09 in 10.0 mi East 9.2 mph - 0.01 in Rain Light Rain
12:52 PM 75.9 °F 73.0 °F 91% 30.06 in 10.0 mi East 8.1 mph - 0.01 in   Partly Cloudy
1:52 PM 75.9 °F 73.9 °F 94% 30.06 in 10.0 mi ENE 8.1 mph - 0.00 in   Mostly Cloudy
2:42 PM 77.0 °F 73.4 °F 89% 30.07 in 10.0 mi East 6.9 mph - N/A   Mostly Cloudy
2:52 PM 75.9 °F 73.0 °F 91% 30.05 in 9.0 mi East 9.2 mph - 0.00 in Rain Light Rain
3:43 PM 75.2 °F 73.4 °F 94% 30.05 in 8.0 mi ESE 10.4 mph - 0.02 in Rain Light Rain
3:52 PM 77.0 °F 73.9 °F 90% 30.02 in 10.0 mi ESE 8.1 mph - 0.03 in Rain Light Rain
4:52 PM 75.9 °F 73.9 °F 94% 30.01 in 7.0 mi East 8.1 mph - 0.00 in Rain Light Rain
5:52 PM 75.9 °F 73.0 °F 91% 29.98 in 10.0 mi East 6.9 mph - 0.01 in Rain Light Rain
6:10 PM 77.0 °F 73.4 °F 89% 30.00 in 10.0 mi ENE 5.8 mph - N/A   Mostly Cloudy
6:52 PM 77.0 °F 73.0 °F 88% 29.98 in 10.0 mi East 8.1 mph - N/A   Mostly Cloudy
7:22 PM 77.0 °F 73.4 °F 89% 30.00 in 10.0 mi East 6.9 mph - N/A   Mostly Cloudy
7:52 PM 75.9 °F 73.0 °F 91% 29.99 in 10.0 mi East 8.1 mph - N/A   Overcast
8:52 PM 75.0 °F 72.0 °F 90% 29.99 in 10.0 mi East 5.8 mph - N/A   Clear
9:52 PM 75.0 °F 72.0 °F 90% 29.98 in 10.0 mi East 5.8 mph - N/A   Mostly Cloudy
10:52 PM 75.0 °F 71.1 °F 87% 29.96 in 10.0 mi ESE 9.2 mph - N/A Thunderstorm Mostly Cloudy
11:24 PM 75.2 °F 71.6 °F 89% 30.04 in 10.0 mi NNW 19.6 mph 24.2 mph N/A Thunderstorm Thunderstorm
11:35 PM 75.2 °F 71.6 °F 89% 30.03 in 10.0 mi North 11.5 mph - N/A Thunderstorm Thunderstorm
11:52 PM 73.9 °F 71.1 °F 91% 29.99 in 10.0 mi NNE 12.7 mph - 0.00 in Rain , Thunderstorm Light Rain